Home   Weather   Antananarivo   Past weeks

Flag for Madagascar Past Weather in Antananarivo, Madagascar — Yesterday and Last 2 Weeks

Now
77 °F

Scattered clouds.


Feels Like: 78 °F
Forecast: 54 / 74 °F
Wind: No wind

Location: Antananarivo / Ivato

Current Time: May 29, 2017 at 2:19:54 pm

Latest Report: May 29, 2017 at 2:00 pm


Visibility: N/A

Pressure: 30.18 "Hg (26.04 "Hg at 1287m altitude)

Humidity: 39%

Dew Point: 50 °F

Location of AntananarivoLocation

Past Weather in Antananarivo — Graph

°F

Antananarivo Temperature Yesterday

Maximum temperature yesterday: 79 °F (at 12:00 pm)
Minimum temperature yesterday: 50 °F (at 6:00 am)
Average temperature yesterday: 63 °F

High & Low Weather Summary for the Past Weeks

 TemperatureHumidityPressure
High81 °F (May 19, 1:30 pm)100% (May 14, 6:00 pm)30.33 "Hg (May 14, 6:00 pm)
Low48 °F (May 29, 4:30 am)30% (May 27, 4:00 pm)30.12 "Hg (May 27, 2:00 pm)
Average64 °F87%30.22 "Hg
* Reported May 14 1:00 pm — May 29 1:00 pm, Antananarivo. Weather by CustomWeather, © 2017

Note: Actual official high and low records may vary slightly from our data, if they occured in-between our weather recording intervals... More about our weather records

Advertising

Antananarivo Weather History for the Previous 24 Hours

Scroll right to see more
 ConditionsComfort  
Time TempWeatherWind HumidityBarometerVisibility
1:00 pm
Mon, May 29
77 °FPassing clouds.No wind39%30.18 "HgN/A
12:30 pm75 °FPassing clouds.3 mph41%30.21 "HgN/A
12:00 pm75 °FPassing clouds.5 mph44%30.21 "HgN/A
11:30 am73 °FPassing clouds.1 mph47%30.24 "HgN/A
11:00 am73 °FPassing clouds.1 mph47%30.24 "HgN/A
10:30 am72 °FPassing clouds.2 mph50%30.27 "HgN/A
10:00 am70 °FPassing clouds.No wind73%30.27 "HgN/A
9:30 am68 °FPassing clouds.No wind83%30.27 "HgN/A
9:00 am64 °FPassing clouds.No wind88%30.27 "HgN/A
8:30 am63 °FPassing clouds.No wind100%30.27 "Hg5 mi
8:00 am59 °FPassing clouds.No wind94%30.27 "Hg5 mi
7:30 am59 °FPassing clouds.No wind94%30.24 "HgN/A
7:00 am52 °FPassing clouds.No wind94%30.24 "HgN/A
6:30 am48 °FPassing clouds.No wind100%30.24 "Hg5 mi
6:00 am50 °FPassing clouds.No wind100%30.24 "Hg5 mi
5:30 am50 °FPassing clouds.No wind100%30.21 "HgN/A
5:00 am48 °FPassing clouds.No wind100%30.21 "HgN/A
4:30 am48 °FPassing clouds.No wind100%30.21 "HgN/A
3:30 am52 °FPassing clouds.No wind100%30.18 "HgN/A
3:00 am52 °FPassing clouds.No wind100%30.18 "HgN/A
2:30 am52 °FPassing clouds.No wind100%30.21 "HgN/A
2:00 am52 °FPassing clouds.No wind100%30.21 "HgN/A
1:30 am52 °FPassing clouds.No wind100%30.21 "HgN/A
1:00 am54 °FPassing clouds.No wind100%30.21 "HgN/A
12:30 am52 °FPassing clouds.No wind100%30.21 "HgN/A
11:30 pm
Sun, May 28
55 °FPassing clouds.No wind94%30.21 "HgN/A
10:30 pm57 °FPassing clouds.No wind100%30.21 "HgN/A
9:30 pm59 °FPassing clouds.No wind94%30.21 "HgN/A
9:00 pm63 °FPassing clouds.No wind73%30.21 "HgN/A
8:30 pm64 °FPassing clouds.No wind68%30.21 "HgN/A
8:00 pm64 °FPassing clouds.No wind68%30.21 "HgN/A
7:30 pm64 °FPassing clouds.No wind68%30.21 "HgN/A
7:00 pm66 °FPassing clouds.No wind64%30.18 "HgN/A
6:30 pm66 °FPassing clouds.No wind64%30.18 "HgN/A
6:00 pm68 °FPassing clouds.No wind60%30.18 "HgN/A
5:30 pm70 °FPassing clouds.2 mph53%30.18 "HgN/A
5:00 pm72 °FPassing clouds.No wind50%30.15 "HgN/A
4:30 pm72 °FScattered clouds.No wind50%30.15 "HgN/A
4:00 pm75 °FScattered clouds.No wind44%30.15 "HgN/A
3:30 pm73 °FScattered clouds.No wind47%30.15 "HgN/A
3:00 pm73 °FPartly sunny.2 mph47%30.15 "HgN/A
2:30 pm73 °FPartly sunny.No wind47%30.15 "HgN/A
2:00 pm77 °FPartly sunny.No wind42%30.15 "HgN/A
Weather by CustomWeather, © 2017

See weather overviewHow to use our weather pages